424  
ASUS43 KLMK 021110  
RWRKY  
KENTUCKY REGIONAL WEATHER ROUNDUP  
NATIONAL WEATHER SERVICE LOUISVILLE KY  
600 AM EST MON MAR 02 2015  
 
NOTE "FAIR" INDICATES FEW OR NO CLOUDS BELOW 12,000 FEET  
WITH NO SIGNIFICANT WEATHER AND/OR S TO VISIBILITY
.  
 
KYZ001>023-026-027-061>063-070>075-021200-  
WESTERN AND SOUTH CENTRAL KENTUCKY  
 
CITY SKY/WX TMP DP RH WIND PRES REMARKS
 
PADUCAH PTCLDY 28 21 75 NE12 30.51R WCI 18  
HENDERSON CLEAR 27 19 74 N3 30.52R  
OWENSBORO CLEAR 26 20 78 N3 30.52R  
HOPKINSVILLE CLOUDY 30 25 82 N10 30.49R WCI 21  
BOWLING GREEN CLOUDY 31 25 78 N8 30.47R WCI 23  
GLASGOW CLOUDY 31 28 90 N10 30.46R WCI 22  

 
 
KYZ024-025-028>034-038-045-046-053-021200-  
NORTH CENTRAL KENTUCKY  
 
CITY SKY/WX TMP DP RH WIND PRES REMARKS
 
LOUISVILLE/SDF PTCLDY 26 20 77 N7 30.49R WCI 18  
LOUISVILLE/LOU CLEAR 27 19 72 N7 30.49R WCI 19  
FORT KNOX CLEAR 25 20 81 NW6 30.46R WCI 18  

 
 
KYZ035>037-039>044-047>052-055>060-089>105-021200-  
NORTHEAST KENTUCKY  
 
CITY SKY/WX TMP DP RH WIND PRES REMARKS
 
LEXINGTON MOCLDY 27 22 81 NW13 30.45R WCI 16  
COVINGTON PTCLDY 23 17 78 NW12 30.45R WCI 12  
FRANKFORT CLOUDY 28 21 75 N7 30.45R WCI 21  

 
 
KYZ054-064>069-076>088-106>120-021200-  
SOUTHEAST KENTUCKY  
 
CITY SKY/WX TMP DP RH WIND PRES REMARKS
 
JACKSON CLOUDY 32 31 96 VRB5 30.38R FOG WCI 27  
LONDON LGT RAIN 34 30 85 NW8 30.39R FOG WCI 27  
SOMERSET MIX PCPN 32 32 100 N5 30.44R WCI 27  
MIDDLESBORO CLOUDY 38 36 94 N10 30.36R WCI 31  
MONTICELLO LGT SNOW 34 33 96 N7 30.45R FOG WCI 28  

 
 
CLICK HERE TO GO TO PREVIOUS BULLETINS.

The Nexlab KY Page Main Text Page